Flag for U.S.A. Weather past 2 weeks in Kilgore, Texas, U.S.A.

Now
59 °F

Clear.


Feels Like: 57 °F
Forecast: 53 / 71 °F
Wind: 10 mph from South

Location: Gregg County Airport

Current Time: Jan 29, 2015 at 1:07:36 AM

Latest Report: Jan 28, 2015 at 11:53 PM


Visibility: 10 mi

Pressure: 30.08 "Hg

Humidity: 64%

Dew point: 47 °F

Location of KilgoreLocation

Historic Weather in Kilgore — Graph

°F

Kilgore temperature yesterday

Maximum temperature yesterday: 78 °F (at 2:53 PM)
Minimum temperature yesterday: 42 °F (at 6:53 AM)
Average temperature yesterday: 60 °F

Past Weeks' High & Low Weather Summary

 TemperatureHumidityPressure
High78 °F (Jan 28, 2:53 PM)97% (Jan 20, 10:00 AM)30.41 "Hg (Jan 20, 10:00 AM)
Low29 °F (Jan 16, 5:53 AM)14% (Jan 18, 2:53 PM)29.90 "Hg (Jan 25, 1:53 PM)
Average49 °F62%30.14 "Hg
* Reported Jan 13 11:53 PM — Jan 28 11:53 PM, Kilgore, Weather by CustomWeather, © 2014

Note: Actual official high and low records may vary slightly from our data, if they occured in-between our weather recording intervals... More about our weather records

Advertising

Kilgore weather history for previous 24 hours

 ConditionsComfort  
Time TempWeatherWind HumidityBarometerVisibility
11:53 PM
Jan 28
59 °FClear.10 mph64%30.08 "Hg10 mi
10:53 PM61 °FClear.13 mph60%30.06 "Hg10 mi
9:53 PM64 °FClear.15 mph54%30.04 "Hg10 mi
8:53 PM62 °FClear.10 mph56%30.05 "Hg10 mi
7:53 PM63 °FClear.10 mph54%30.07 "Hg10 mi
6:53 PM65 °FClear.9 mph51%30.05 "Hg10 mi
5:53 PM65 °FClear.7 mph51%30.06 "Hg10 mi
4:53 PM73 °FSunny.9 mph37%30.05 "Hg10 mi
3:53 PM77 °FSunny.15 mph31%30.04 "Hg10 mi
2:53 PM78 °FSunny.13 mph30%30.05 "Hg10 mi
1:53 PM76 °FSunny.16 mph32%30.07 "Hg10 mi
12:53 PM77 °FSunny.18 mph31%30.11 "Hg10 mi
11:53 AM75 °FSunny.17 mph34%30.15 "Hg10 mi
10:53 AM71 °FSunny.17 mph41%30.17 "Hg10 mi
9:53 AM65 °FSunny.8 mph52%30.19 "Hg10 mi
8:53 AM53 °FSunny.No wind80%30.19 "Hg10 mi
7:53 AM43 °FSunny.3 mph89%30.17 "Hg10 mi
6:53 AM42 °FClear.No wind89%30.15 "Hg10 mi
5:53 AM43 °FClear.No wind89%30.13 "Hg10 mi
4:53 AM44 °FClear.No wind82%30.11 "Hg10 mi
3:53 AM43 °FClear.No wind86%30.12 "Hg10 mi
2:53 AM44 °FClear.No wind85%30.13 "Hg10 mi
1:53 AM44 °FClear.No wind85%30.12 "Hg10 mi
Weather by CustomWeather, © 2014

See weather overviewHow to use our weather pages